Flag for Colombia Weather past 2 weeks in Santa Marta, Colombia

Now
84 °F

Clear.


Feels Like: 91 °F
Forecast: 82 / 89 °F
Wind: 9 mph from Northeast

Location: Barranquilla / Ernestocortissoz

Current Time: Jul 23, 2014 at 2:30:15 AM

Latest Report: Jul 23, 2014 at 1:00 AM


Visibility: 10 mi

Pressure: 29.79 "Hg

Humidity: 70%

Dew point: 73 °F

Location of Santa MartaLocation

Historic Weather in Santa Marta — Graph

°F

Santa Marta temperature yesterday

Maximum temperature yesterday: 93 °F (at 12:00 PM)
Minimum temperature yesterday: 81 °F (at 2:00 AM)
Average temperature yesterday: 84 °F

Past Weeks' High & Low Weather Summary

 TemperatureHumidityPressure
High99 °F (Jul 20, 12:00 PM)100% (Jul 14, 6:00 AM)29.91 "Hg (Jul 14, 6:00 AM)
Low77 °F (Jul 8, 5:00 AM)47% (Jul 20, 12:00 PM)29.72 "Hg (Jul 11, 6:00 PM)
Average85 °F79%29.82 "Hg
* Reported Midnight between Jul 7 and Jul 8 — Midnight between Jul 22 and Jul 23, Santa Marta, Weather by CustomWeather, © 2014

Note: Actual official high and low records may vary slightly from our data, if they occured in-between our weather recording intervals... More about our weather records

Advertising

Santa Marta weather history for previous 24 hours

 ConditionsComfort  
Time TempWeatherWind HumidityBarometerVisibility
12:00 AM
Jul 23
82 °FClear.9 mph84%29.80 "Hg10 mi
11:00 PM
Jul 22
82 °FClear.13 mph84%29.82 "Hg10 mi
10:00 PM82 °FClear.15 mph84%29.82 "Hg10 mi
9:00 PM82 °FClear.18 mph84%29.81 "Hg10 mi
8:00 PM82 °FClear.12 mph79%29.79 "Hg10 mi
7:00 PM84 °FPassing clouds.14 mph74%29.77 "HgN/A
12:00 PM93 °FPartly sunny.6 mph56%29.81 "HgN/A
11:00 AM91 °FPartly sunny.9 mph59%29.82 "HgN/A
10:00 AM90 °FPartly sunny.9 mph67%29.84 "HgN/A
9:00 AM88 °FScattered clouds.5 mph70%29.84 "HgN/A
8:00 AM84 °FScattered clouds.5 mph84%29.83 "HgN/A
7:00 AM82 °FFog.3 mph89%29.82 "Hg3 mi
6:00 AM81 °FFog.6 mph94%29.80 "Hg2 mi
5:00 AM81 °FFog.2 mph94%29.80 "Hg1 mi
4:00 AM81 °FFog.5 mph94%29.78 "Hg1 mi
3:00 AM81 °FPassing clouds.5 mph89%29.77 "HgN/A
2:00 AM81 °FPassing clouds.5 mph89%29.77 "HgN/A
Weather by CustomWeather, © 2014

See weather overviewHow to use our weather pages